Date String (YYYY-MM-DD hh:mm:ss) UTC,Instrument flags,Ambient pressure (hPa),Sample flow (lpm),Bypass flow (lpm),Sample temperature (°C),Ambient temperature (°C),ASC tube jacket temperature (°C),LED temperature (°C),Box temperature (°C),Sample RH (%),Span deviation,Mass concentration (μg/m³),Mass concentration (μg/m³),Mass concentration (μg/m³)
DateTimeUTC,F1_M11,P_M11,Q1_M11,Q2_M11,T1_M11,T2_M11,T3_M11,T4_M11,T5_M11,U1_M11,ZSPAN_M11,X0_M11,X2_M11,X1_M11
2022-01-31 16:00:00,,0818.8,5.00,0.00,22.4,21.6,00.0,31.6,24.0,02.8,0000.0,0000.45,0000.31,0000.23
2022-01-31 16:01:00,,0818.8,5.00,0.00,22.4,21.5,00.0,31.6,23.9,03.0,0000.0,0000.45,0000.31,0000.23
2022-01-31 16:02:00,,0818.8,4.98,0.00,22.4,21.5,00.0,31.6,23.9,03.0,0000.0,0000.45,0000.32,0000.24
2022-01-31 16:03:00,,0818.8,5.01,0.00,22.4,21.5,00.0,31.5,24.0,02.6,0000.0,0000.41,0000.29,0000.23
2022-01-31 16:04:00,,0818.8,4.98,0.00,22.3,21.5,00.0,31.5,23.9,02.6,0000.0,0000.40,0000.30,0000.23
2022-01-31 16:05:00,,0818.9,5.01,0.00,22.4,21.9,00.0,31.5,24.0,02.7,0000.0,0000.42,0000.30,0000.24
2022-01-31 16:06:00,,0818.8,5.01,0.00,22.5,22.8,00.0,31.6,24.4,02.9,0000.0,0000.42,0000.31,0000.24
2022-01-31 16:07:00,,0818.9,4.99,0.00,22.7,23.2,00.0,31.6,24.6,02.8,0000.0,0000.41,0000.31,0000.24
2022-01-31 16:08:00,,0818.8,5.01,0.00,22.7,23.0,00.0,31.6,24.6,02.5,0000.0,0000.41,0000.31,0000.24
2022-01-31 16:09:00,,0818.8,5.00,0.00,22.7,22.8,00.0,31.6,24.5,03.0,0000.0,0000.45,0000.32,0000.25
2022-01-31 16:10:00,,0818.7,4.99,0.00,22.7,22.5,00.0,31.6,24.4,03.2,0000.0,0000.49,0000.33,0000.25
2022-01-31 16:11:00,,0818.7,5.00,0.00,22.6,22.4,00.0,31.6,24.4,02.8,0000.0,0001.14,0000.34,0000.26
2022-01-31 16:12:00,,0818.7,4.99,0.00,22.6,22.2,00.0,31.6,24.3,03.0,0000.0,0001.41,0000.36,0000.26
2022-01-31 16:13:00,,0818.8,5.01,0.00,22.6,22.0,00.0,31.6,24.3,02.9,0000.0,0001.78,0000.40,0000.27
2022-01-31 16:14:00,,0818.8,5.00,0.00,22.6,21.9,00.0,31.6,24.3,03.1,0000.0,0001.90,0000.43,0000.27
2022-01-31 16:15:00,,0818.8,4.99,0.00,22.5,21.9,00.0,31.6,24.2,03.1,0000.0,0001.89,0000.42,0000.28
2022-01-31 16:16:00,,0818.7,5.00,0.00,22.5,21.8,00.0,31.6,24.2,02.8,0000.0,0001.88,0000.42,0000.27
2022-01-31 16:17:00,,0818.8,5.01,0.00,22.5,21.7,00.0,31.6,24.2,03.0,0000.0,0001.89,0000.42,0000.27
2022-01-31 16:18:00,,0818.8,4.99,0.00,22.5,21.6,00.0,31.5,24.1,02.8,0000.0,0001.96,0000.43,0000.27
2022-01-31 16:19:00,,0818.7,5.02,0.00,22.4,21.6,00.0,31.5,24.1,03.0,0000.0,0004.60,0000.44,0000.28
2022-01-31 16:20:00,,0818.7,4.99,0.00,22.4,21.6,00.0,31.5,24.1,03.1,0000.0,0005.44,0000.45,0000.28
2022-01-31 16:21:00,,0818.6,5.00,0.00,22.4,21.7,00.0,31.5,24.1,03.6,0000.0,0005.48,0000.48,0000.29
2022-01-31 16:22:00,,0818.6,5.00,0.00,22.4,21.7,00.0,31.5,24.1,03.3,0000.0,0005.18,0000.47,0000.30
2022-01-31 16:23:00,,0818.6,5.00,0.00,22.4,21.6,00.0,31.5,24.1,03.3,0000.0,0005.61,0000.47,0000.30
2022-01-31 16:24:00,,0818.7,4.98,0.00,22.4,21.6,00.0,31.5,24.1,02.9,0000.0,0005.23,0000.45,0000.30
2022-01-31 16:25:00,,0818.7,5.02,0.00,22.4,21.5,00.0,31.5,24.1,03.3,0000.0,0005.13,0000.43,0000.31
2022-01-31 16:26:00,,0818.7,4.99,0.00,22.4,21.5,00.0,31.4,24.0,03.3,0000.0,0006.07,0000.43,0000.31
2022-01-31 16:27:00,,0818.5,5.02,0.00,22.3,21.5,00.0,31.4,24.0,03.3,0000.0,0006.26,0000.42,0000.31
2022-01-31 16:28:00,,0818.5,4.99,0.00,22.3,21.4,00.0,31.4,24.0,02.9,0000.0,0006.26,0000.43,0000.32
2022-01-31 16:29:00,,0818.6,5.01,0.00,22.4,21.8,00.0,31.4,24.1,02.9,0000.0,0006.26,0000.44,0000.32
2022-01-31 16:30:00,,0818.5,5.00,0.00,22.5,22.7,00.0,31.5,24.4,03.0,0000.0,0004.89,0000.45,0000.32
2022-01-31 16:31:00,,0818.5,4.99,0.00,22.7,23.5,00.0,31.5,24.7,02.6,0000.0,0003.28,0000.44,0000.32
2022-01-31 16:32:00,,0818.5,5.01,0.00,22.8,23.4,00.0,31.6,24.8,02.9,0000.0,0003.18,0000.40,0000.32
2022-01-31 16:33:00,,0818.4,5.01,0.00,22.8,23.2,00.0,31.6,24.7,03.4,0000.0,0003.13,0000.40,0000.31
2022-01-31 16:34:00,,0818.3,4.99,0.00,22.8,22.9,00.0,31.6,24.6,03.2,0000.0,0002.38,0000.40,0000.30
2022-01-31 16:35:00,,0818.2,5.00,0.00,22.7,22.7,00.0,31.6,24.6,03.1,0000.0,0002.42,0000.41,0000.29
2022-01-31 16:36:00,,0818.3,4.99,0.00,22.7,22.4,00.0,31.6,24.5,03.3,0000.0,0002.59,0000.44,0000.29
2022-01-31 16:37:00,,0818.2,5.02,0.00,22.7,22.3,00.0,31.6,24.4,02.9,0000.0,0001.83,0000.47,0000.29
2022-01-31 16:38:00,,0818.0,4.99,0.00,22.7,22.2,00.0,31.6,24.4,03.0,0000.0,0001.53,0000.48,0000.29
2022-01-31 16:39:00,,0818.0,5.01,0.00,22.7,22.0,00.0,31.6,24.4,02.9,0000.0,0001.56,0000.48,0000.29
2022-01-31 16:40:00,,0818.0,5.00,0.00,22.7,21.9,00.0,31.6,24.3,02.8,0000.0,0001.50,0000.47,0000.28
2022-01-31 16:41:00,,0818.0,4.99,0.00,22.6,21.9,00.0,31.6,24.3,02.8,0000.0,0002.12,0000.46,0000.28
2022-01-31 16:42:00,,0817.9,5.00,0.00,22.6,21.8,00.0,31.6,24.3,03.3,0000.0,0002.05,0000.47,0000.28
2022-01-31 16:43:00,,0817.9,5.01,0.00,22.6,21.7,00.0,31.6,24.3,02.9,0000.0,0002.05,0000.46,0000.27
2022-01-31 16:44:00,,0818.1,4.98,0.00,22.6,21.7,00.0,31.6,24.2,03.0,0000.0,0001.90,0000.45,0000.27
2022-01-31 16:45:00,,0817.9,5.01,0.00,22.6,21.7,00.0,31.6,24.2,03.0,0000.0,0001.78,0000.43,0000.28
2022-01-31 16:46:00,,0818.0,4.99,0.00,22.5,21.6,00.0,31.6,24.2,02.8,0000.0,0001.73,0000.40,0000.27
2022-01-31 16:47:00,,0817.8,4.99,0.00,22.5,21.6,00.0,31.6,24.1,02.7,0000.0,0001.59,0000.37,0000.27
2022-01-31 16:48:00,,0817.7,5.00,0.00,22.5,21.6,00.0,31.6,24.1,02.9,0000.0,0001.57,0000.37,0000.27
2022-01-31 16:49:00,,0817.5,5.00,0.00,22.5,21.5,00.0,31.6,24.1,02.8,0000.0,0001.65,0000.37,0000.26
2022-01-31 16:50:00,,0817.2,5.01,0.00,22.5,21.5,00.0,31.5,24.1,02.9,0000.0,0002.46,0000.40,0000.27
2022-01-31 16:51:00,,0817.6,5.00,0.00,22.5,21.4,00.0,31.5,24.1,02.7,0000.0,0002.90,0000.43,0000.27
2022-01-31 16:52:00,,0817.9,5.00,0.00,22.4,21.4,00.0,31.5,24.1,02.1,0000.0,0002.13,0000.44,0000.26
2022-01-31 16:53:00,,0817.7,5.00,0.00,22.4,21.4,00.0,31.5,24.1,02.1,0000.0,0002.07,0000.43,0000.26
2022-01-31 16:54:00,,0817.8,4.98,0.00,22.4,21.4,00.0,31.5,24.1,02.7,0000.0,0002.18,0000.45,0000.26
2022-01-31 16:55:00,,0818.0,5.02,0.00,22.4,21.4,00.0,31.5,24.1,02.7,0000.0,0002.34,0000.48,0000.25
2022-01-31 16:56:00,,0817.9,5.00,0.00,22.4,21.4,00.0,31.5,24.0,02.3,0000.0,0002.35,0000.49,0000.25
2022-01-31 16:57:00,,0817.9,5.00,0.00,22.3,21.4,00.0,31.5,24.0,02.2,0000.0,0002.34,0000.49,0000.25
2022-01-31 16:58:00,,0817.8,4.98,0.00,22.3,21.5,00.0,31.5,24.0,02.4,0000.0,0002.31,0000.48,0000.25
2022-01-31 16:59:00,,0817.7,5.02,0.00,22.3,21.5,00.0,31.4,24.0,02.7,0000.0,0002.29,0000.46,0000.25
